Regional Weather Roundup
Issued by NWS Charleston, SC

Current Version | Previous Version | Graphics & Text | Print | Product List | Glossary On
Versions: 1 2 3 4 5 6 7 8 9 10 11 12 13 14 15 16 17 18 19 20 21 22 23 24 25 26 27 28 29 30 31 32 33 34 35 36 37 38 39 40 41 42 43 44 45 46 47 48 49 50
000 ASUS42 KCHS 020027 RWRCHS REGIONAL WEATHER ROUNDUP NATIONAL WEATHER SERVICE CHARLESTON SC 800 PM EDT WED JUL 01 2015 NOTE: "FAIR" INDICATES FEW OR NO CLOUDS BELOW 12,000 FEET WITH NO SIGNIFICANT WEATHER AND/OR OBSTRUCTIONS TO VISIBILITY. NOT ALL STATIONS ARE QUALITY CONTROLLED BY THE NATIONAL WEATHER SERVICE. USE DATA WITH CAUTION...ESPECIALLY DEWPOINT OBSERVATIONS. SCZ027-030-031-034>040-042>050-020100- ...SOUTHEAST SOUTH CAROLINA... CITY SKY/WX TMP DP RH WIND PRES REMARKS N CHARLESTON MOCLDY 83 71 67 SW5 29.99R 6HR MIN TEMP: 83; 6HR MAX TEMP: 88; WATERFRONT PAR N/A 85 73 67 W6 29.96R HX 92 MOUNT PLEASANT FAIR 84 72 65 SW3 30.00R JOHNS ISLAND FAIR 82 73 74 SW5 30.00R PINOPOLIS NOT AVBL MONCKS CORNER FAIR 81 73 78 SW5 29.99R SUMMERVILLE FAIR 81 73 78 CALM 30.00R BEAUFORT MCAS MOCLDY 85 72 65 W5 30.00R HX 91 6HR MIN TEMP: 85; 6HR MAX TEMP: 88; BEAUFORT ARPT FAIR 82 73 74 CALM 30.00R HILTON HEAD IS MOCLDY 86 73 66 CALM 30.01R HX 93 WALTERBORO MOCLDY 81 72 74 SW3 30.00S ALLENDALE FAIR 82 72 69 CALM 29.99S ...SOUTHERN MIDLANDS AND PEE DEE... CITY SKY/WX TMP DP RH WIND PRES REMARKS GEORGETOWN NOT AVBL KINGSTREE NOT AVBL ORANGEBURG PTCLDY 83 70 64 SW7 29.98R 6HR MIN TEMP: 83; 6HR MAX TEMP: 88; BARNWELL FAIR 82 72 69 W5 30.01R AIKEN NOT AVBL MANNING FAIR 81 70 69 SW3 29.98R COLUMBIA MOCLDY 84 68 58 W7 29.97R 6HR MIN TEMP: 84; 6HR MAX TEMP: 89; SUMTER PTCLDY 82 71 68 SW8 29.96R 6HR MIN TEMP: 82; 6HR MAX TEMP: 87; FLORENCE MOCLDY 82 73 74 S5 29.96R 6HR MIN TEMP: 82; 6HR MAX TEMP: 87; MYRTLE BEACH CLOUDY 84 70 61 W6 30.00R N MYRTLE BEACH PTCLDY 82 70 66 SW6 29.98R 6HR MIN TEMP: 82; 6HR MAX TEMP: 86; $$ GAZ063-065-086>088-099>101-113>116-118-119-134>141-150-020100- ...SOUTHEAST GEORGIA... CITY SKY/WX TMP DP RH WIND PRES REMARKS SAVANNAH ARPT CLOUDY 86 70 58 SW5 30.00R HX 90 6HR MIN TEMP: 86; 6HR MAX TEMP: 91; HUNTER AAF PTCLDY 87 73 62 SW6 29.98R HX 93 6HR MIN TEMP: 87; 6HR MAX TEMP: 91; FORT STEWART PTCLDY 87 70 57 W6 29.99R HX 92 6HR MIN TEMP: 87; 6HR MAX TEMP: 91; STATESBORO PTCLDY 82 77 87 CALM 30.01S SYLVANIA CLEAR 85 75 71 CALM 30.02R HX 94 CLAXTON FAIR 84 73 70 SW3 30.01R HX 91 ...CSRA...CENTRAL AND FAR SOUTHEAST GEORGIA... CITY SKY/WX TMP DP RH WIND PRES REMARKS THOMSON PTCLDY 82 74 78 SW3 30.06S AUGUSTA-BUSH PTCLDY 83 69 62 W8 29.99R 6HR MIN TEMP: 83; 6HR MAX TEMP: 88; AUGUSTA-DANIEL PTCLDY 84 68 58 W6 30.01R SWAINSBORO FAIR 84 77 79 CALM 30.03R HX 94 VIDALIA PTCLDY 86 70 58 W3 30.02R HX 90 EASTMAN FAIR 85 69 58 W5 30.05R HAZLEHURST FAIR 87 71 58 SW5 30.02R HX 92 ALMA CLEAR 87 68 52 SW6 30.03R HX 90 6HR MIN TEMP: 87; 6HR MAX TEMP: 91; WAYCROSS CLEAR 90 72 55 W6 30.05R HX 97 JESUP FAIR 90 72 55 W5 30.03R HX 96 BAXLEY FAIR 88 70 55 SW5 30.03R HX 92 BRUNSWICK PTCLDY 82 73 74 W3 30.03R SAINT SIMONS CLEAR 87 70 56 SW6 30.02R HX 92 6HR MIN TEMP: 87; 6HR MAX TEMP: 92; $$ SCZ027-028-034-036>038-045-046-048>050-GAZ119-141-020100- ...LAKE AND SUPPLEMENTAL COASTAL OBSERVATIONS... STATION/POSITION TIME TEMP WIND PRES WAVE SWELL AIR SEA DIR/SP/G HT/PER HT/PER/DIR (UTC) (F) (DEG/KT/KT) (MB) (FT/S) (FT/S/D) UPR LAKE MARION NOT AVBL WINYAH BAY 2300 83 230/ 6 1014.0 LAKE MURRAY 2300 84 270/ 8/ 13 1013.9S ACE BASIN NERRS 2300 85 150/ 3 1016.0R FORT PULASKI 0000 87 84 240/ 5/ 7 1016.4R SAPELO ISLAND 0000 87 250/ 6 1016.0S $$ ANZ835-935-AMZ111-154-330-350-352-354-370-450-454-472-020100- ...C-MAN AND BUOY OBSERVATIONS... STATION/POSITION TIME TEMP WIND PRES WAVE SWELL AIR SEA DIR/SP/G HT/PER HT/PER/DIR (UTC) (F) (DEG/KT/KT) (MB) (FT/S) (FT/S/D) BUOY 41004 2350 82 83 220/ 16/ 19 1015.3R 5/ 6 2/ 8 BUOY 41008 2350 80 79 200/ 8/ 10 1016.3R 2/ 9 2/120/ 9 FOLLY BEACH CMAN 0000 84 240/ 5/ 7 1015.9R CAPERS NEARSHORE 2308 82 230/ 16/ 19 1015.5R FRIPP NEARSHORE 2300 83 210/ 10/ 14 1015.3R STATION/POSITION TIME TEMP WIND PRES WAVE SWELL AIR SEA DIR/SP/G HT/PER HT/PER/DIR (UTC) (F) (DEG/KT/KT) (MB) (FT/S) (FT/S/D) 5E ST. MARYS GA 2321 78 N/A 2/ 8 FRYING PAN BUOY 2350 81 80 230/ 19/ 23 1015.3R 5/ 6 2/160/13 BUOY 41025 2350 81 83 220/ 17/ 19 1013.4R 5/ 6 3/160/ 8 CAPE LOOKOUT NC 0000 79 230/ 11/ 15 1014.0R BUOY 41002 2350 82 80 230/ 16/ 19 1018.0R 6/ 7 2/170/ 8 BUOY 41010 2320 84 84 190/ 8/ 8 1019.5S ST AUGUSTINE FL 0000 84 74 200/ 6/ 9 1018.9R $$

USA.gov is the U.S. government's official web portal to all federal, state and local government web resources and services.